COSMOS 1275 DEB, 42156

Orbit data source: Space-Track

COSMOS 1275 DEB, 42156 is space debris in LEO originally from a launch on Thu, 04 Jun 1981 UTC launched from the Plesetsk Missile And Space Complex (PKMTR). Debris objects in space refer to the collection of defunct objects orbiting the Earth. Examples of debris include non-operational satellites, rocket bodies, and fragments generated from explosions, collisions, or faulty payload assembly.

Loading next visibility...
Identifier
42156, 1981-053RU
Orbit
LEO
Country
Flag of CISCIS
Related business
Manufacturer
Unknown
Mission
Spacecraft
Bus & Motor
Unknown
Mass
Unknown
Launch date (UTC)
1981-06-04 (44 years ago)
Launch vehicle
Unknown
Launch site
Plesetsk Missile And Space Complex (PKMTR)
Object type
Payload
Rocket body
Debris
Shape & HBR
Unknown shape, 0.1 m
Radar Cross Section
Small (<0.1 m²)

Expand to show TLE details & history
Last TLE update: 2 days ago

TLE from 2 days ago
0 COSMOS 1275 DEB
1 42156U 81053RU  25297.05500340  .00003818  00000-0  20751-2 0  9994
2 42156  82.7449 220.2142 0049021 150.9657 209.4262 14.11466868595780
Epoch: 2025-10-24T01:19Z
TLE epoch observation values (Epoch: 2025-10-24T01:19:12.293Z)
Latitude
-0.00003°
Longitude
167.70757°
Altitude
888.23 km
Speed
7.392 km/s
True Right ascension
14h 40m 51s
True Declination
0° 00' 00"
Sunlit
Object was in daylight at epoch
Visualization orbit readout
Latitude
Unknown
Longitude
Unknown
Altitude
Unknown
Speed
Unknown
Apparent Right ascension
Unknown
Apparent Declination
Unknown
Sunlit
N/A
Visualization observer readout
Local Sidereal Time
02:53:43
Azimuth
Unknown
Elevation
Unknown
Doppler factor
Unknown
Orbital elements
Apogee altitude
886.903 km
Perigee altitude
816.022 km
Semi-major axis
7,229.6 km
Eccentricity
0.0049
Inclination
82.7449°
RAAN
220.2142°
Arg. of periapsis
150.9657°
True anomaly
209.15168°
Mean anomaly
209.4262°
Eccentric anomaly
209.2888°
Mean motion
3.53079 °/min
Orbital period
101.96 mins
BSTAR
0.0020751
Loading maneuver chart data...
Computing Atmospheric mass density...
Loading historical data...
Loading historical data...
Loading historical data...
Loading historical data...
Loading historical data...
Loading historical data...
Loading historical data...

Documentation

Showing up to 5 results
|